Total_Precipitation_Accumulation
0.34 0.52 0.60 0.68 0.50 0.39 0.42 0.47 0.49 0.47 0.43 0.50 0.47 0.23 0.09 0.03 0.01 0.01 0.01 0.02 0.01 0.01 0.01 0.01 0.01 0.01 0.00 0.00 0.00 0.00 0.00 0.00 0.01 0.00 0.00 0.00 0.00 0.02 0.05 0.26 0.18 0.19 0.24 0.17
0.38 0.45 0.54 0.53 0.39 0.29 0.32 0.44 0.50 0.55 0.34 0.31 0.19 0.07 0.03 0.01 0.00 0.00 0.01 0.00 0.00 0.00 0.00 0.01 0.00 0.00 0.00 0.00 0.00 0.00 0.02 0.02 0.03 0.01 0.00 0.00 0.00 0.00 0.00 0.04 0.10 0.10 0.11 0.11
0.50 0.50 0.50 0.45 0.51 0.42 0.18 0.29 0.57 0.84 0.62 0.27 0.05 0.05 0.06 0.03 0.01 0.01 0.00 0.00 0.00 0.01 0.01 0.01 0.02 0.01 0.00 0.00 0.00 0.00 0.03 0.04 0.04 0.03 0.00 0.00 0.00 0.02 0.04 0.11 0.22 0.20 0.18 0.13
0.61 0.59 0.68 0.66 0.66 0.41 0.20 0.22 0.24 0.25 0.30 0.18 0.05 0.06 0.09 0.06 0.04 0.01 0.00 0.01 0.01 0.02 0.03 0.01 0.01 0.01 0.01 0.00 0.00 0.00 0.05 0.07 0.03 0.02 0.01 0.00 0.00 0.01 0.01 0.04 0.07 0.13 0.07 0.05
0.76 0.79 0.81 0.75 0.43 0.14 0.09 0.18 0.11 0.06 0.06 0.03 0.06 0.08 0.11 0.07 0.03 0.01 0.01 0.00 0.00 0.00 0.01 0.01 0.00 0.00 0.00 0.00 0.00 0.00 0.02 0.07 0.05 0.04 0.01 0.00 0.01 0.00 0.00 0.00 0.00 0.01 0.01 0.01
0.85 0.91 0.68 0.38 0.16 0.06 0.07 0.05 0.03 0.05 0.12 0.07 0.07 0.07 0.04 0.03 0.01 0.02 0.00 0.00 0.00 0.00 0.00 0.00 0.00 0.00 0.00 0.00 0.00 0.00 0.02 0.04 0.07 0.09 0.02 0.04 0.06 0.00 0.00 0.00 0.00 0.01 0.02 0.00
0.75 0.53 0.31 0.15 0.06 0.03 0.05 0.03 0.02 0.06 0.12 0.05 0.03 0.01 0.01 0.01 0.01 0.02 0.00 0.00 0.00 0.00 0.00 0.00 0.00 0.00 0.00 0.00 0.00 0.00 0.00 0.01 0.05 0.09 0.06 0.14 0.05 0.00 0.00 0.01 0.00 0.00 0.01 0.01
0.30 0.21 0.15 0.05 0.00 0.00 0.02 0.01 0.01 0.04 0.06 0.03 0.01 0.01 0.01 0.01 0.01 0.00 0.00 0.00 0.00 0.00 0.00 0.00 0.00 0.00 0.00 0.00 0.00 0.00 0.00 0.01 0.03 0.10 0.09 0.05 0.00 0.01 0.02 0.05 0.10 0.02 0.02 0.01
0.08 0.05 0.03 0.00 0.00 0.00 0.00 0.00 0.00 0.02 0.05 0.03 0.01 0.00 0.00 0.00 0.00 0.01 0.00 0.00 0.00 0.00 0.01 0.02 0.02 0.00 0.01 0.02 0.01 0.00 0.01 0.04 0.10 0.13 0.18 0.08 0.00 0.00 0.00 0.03 0.08 0.02 0.03 0.03
0.00 0.00 0.00 0.00 0.00 0.00 0.02 0.01 0.00 0.01 0.03 0.02 0.00 0.00 0.01 0.00 0.00 0.01 0.01 0.01 0.00 0.02 0.04 0.04 0.02 0.01 0.02 0.05 0.04 0.03 0.05 0.12 0.17 0.15 0.19 0.07 0.01 0.00 0.01 0.10 0.08 0.05 0.11 0.08
0.00 0.00 0.00 0.00 0.00 0.00 0.03 0.02 0.02 0.05 0.05 0.02 0.00 0.00 0.00 0.00 0.01 0.02 0.04 0.02 0.03 0.05 0.06 0.05 0.06 0.06 0.08 0.08 0.04 0.05 0.07 0.12 0.15 0.18 0.20 0.11 0.06 0.03 0.07 0.05 0.02 0.02 0.02 0.04
0.00 0.00 0.00 0.00 0.01 0.00 0.02 0.03 0.02 0.02 0.04 0.03 0.00 0.00 0.00 0.00 0.00 0.01 0.04 0.03 0.04 0.09 0.11 0.13 0.19 0.20 0.15 0.08 0.07 0.04 0.15 0.16 0.21 0.28 0.28 0.14 0.08 0.05 0.02 0.03 0.03 0.03 0.02 0.03
0.00 0.00 0.00 0.00 0.00 0.00 0.02 0.07 0.01 0.01 0.01 0.00 0.00 0.00 0.00 0.00 0.00 0.00 0.03 0.03 0.04 0.03 0.06 0.08 0.06 0.04 0.03 0.05 0.05 0.04 0.01 0.02 0.09 0.09 0.03 0.02 0.03 0.05 0.02 0.01 0.03 0.03 0.01 0.00
0.00 0.00 0.00 0.00 0.00 0.00 0.02 0.09 0.01 0.03 0.02 0.02 0.02 0.00 0.00 0.00 0.00 0.00 0.00 0.01 0.04 0.12 0.19 0.22 0.17 0.08 0.05 0.04 0.03 0.02 0.01 0.01 0.01 0.01 0.01 0.01 0.01 0.03 0.03 0.01 0.01 0.02 0.02 0.02
0.00 0.00 0.00 0.00 0.00 0.01 0.05 0.08 0.02 0.04 0.07 0.07 0.03 0.02 0.00 0.00 0.00 0.00 0.01 0.02 0.03 0.08 0.15 0.12 0.06 0.05 0.07 0.03 0.02 0.00 0.00 0.01 0.03 0.02 0.01 0.01 0.00 0.00 0.00 0.00 0.00 0.00 0.00 0.00
0.00 0.00 0.00 0.02 0.02 0.02 0.02 0.01 0.01 0.01 0.02 0.04 0.01 0.01 0.00 0.00 0.00 0.00 0.00 0.01 0.02 0.05 0.05 0.02 0.01 0.01 0.09 0.07 0.01 0.00 0.00 0.00 0.00 0.00 0.00 0.00 0.00 0.00 0.00 0.00 0.00 0.00 0.00 0.00
0.00 0.01 0.02 0.03 0.02 0.09 0.03 0.05 0.05 0.00 0.01 0.02 0.01 0.00 0.00 0.00 0.00 0.00 0.00 0.00 0.00 0.01 0.03 0.01 0.00 0.00 0.05 0.05 0.01 0.00 0.00 0.00 0.00 0.00 0.01 0.00 0.00 0.00 0.00 0.00 0.00 0.00 0.00 0.00
0.00 0.00 0.00 0.00 0.00 0.02 0.05 0.01 0.00 0.01 0.04 0.05 0.03 0.01 0.02 0.01 0.01 0.04 0.03 0.07 0.08 0.07 0.02 0.00 0.01 0.02 0.07 0.07 0.00 0.00 0.00 0.00 0.00 0.00 0.00 0.01 0.00 0.00 0.00 0.00 0.00 0.00 0.00 0.00
0.00 0.00 0.00 0.01 0.01 0.05 0.04 0.00 0.00 0.04 0.07 0.07 0.04 0.02 0.07 0.04 0.04 0.11 0.10 0.11 0.11 0.06 0.05 0.02 0.08 0.06 0.09 0.01 0.00 0.00 0.00 0.00 0.00 0.00 0.00 0.00 0.00 0.00 0.00 0.00 0.00 0.01 0.00 0.00
0.00 0.01 0.03 0.03 0.01 0.01 0.01 0.02 0.05 0.05 0.05 0.04 0.02 0.01 0.02 0.02 0.03 0.07 0.10 0.12 0.05 0.06 0.03 0.03 0.09 0.04 0.03 0.05 0.06 0.03 0.02 0.01 0.03 0.10 0.07 0.05 0.03 0.01 0.00 0.00 0.00 0.02 0.02 0.01
0.04 0.08 0.10 0.05 0.00 0.02 0.05 0.08 0.05 0.06 0.05 0.02 0.01 0.01 0.01 0.02 0.02 0.05 0.08 0.09 0.07 0.07 0.06 0.06 0.06 0.02 0.03 0.04 0.03 0.06 0.08 0.05 0.05 0.04 0.02 0.02 0.02 0.01 0.01 0.00 0.00 0.01 0.01 0.02
0.06 0.06 0.03 0.02 0.03 0.05 0.06 0.04 0.02 0.04 0.03 0.05 0.05 0.10 0.08 0.07 0.04 0.06 0.07 0.08 0.04 0.03 0.10 0.09 0.03 0.11 0.22 0.08 0.01 0.01 0.01 0.01 0.00 0.00 0.00 0.00 0.00 0.00 0.01 0.01 0.00 0.00 0.01 0.01
0.03 0.02 0.02 0.02 0.04 0.05 0.03 0.11 0.14 0.11 0.06 0.05 0.07 0.35 0.24 0.08 0.06 0.10 0.07 0.05 0.02 0.04 0.07 0.05 0.08 0.15 0.11 0.06 0.01 0.00 0.00 0.00 0.00 0.00 0.00 0.00 0.00 0.00 0.01 0.01 0.00 0.00 0.00 0.00
0.04 0.03 0.02 0.02 0.02 0.01 0.02 0.14 0.13 0.10 0.10 0.10 0.17 0.27 0.19 0.12 0.13 0.04 0.06 0.04 0.04 0.05 0.04 0.08 0.21 0.22 0.10 0.01 0.00 0.00 0.00 0.00 0.00 0.00 0.00 0.01 0.01 0.01 0.01 0.01 0.01 0.02 0.01 0.00
0.03 0.03 0.02 0.00 0.00 0.02 0.03 0.04 0.04 0.03 0.06 0.09 0.12 0.15 0.11 0.16 0.14 0.03 0.03 0.05 0.04 0.03 0.11 0.31 0.25 0.20 0.09 0.00 0.00 0.00 0.00 0.00 0.00 0.01 0.01 0.01 0.01 0.01 0.01 0.01 0.01 0.01 0.01 0.01
0.02 0.01 0.01 0.01 0.01 0.04 0.04 0.03 0.05 0.07 0.11 0.06 0.08 0.15 0.12 0.10 0.04 0.05 0.03 0.02 0.04 0.14 0.38 0.31 0.13 0.06 0.01 0.00 0.00 0.00 0.00 0.00 0.00 0.01 0.01 0.01 0.01 0.02 0.03 0.02 0.02 0.01 0.01 0.01
0.02 0.00 0.00 0.00 0.01 0.01 0.02 0.06 0.08 0.11 0.04 0.04 0.14 0.23 0.22 0.19 0.20 0.12 0.23 0.33 0.33 0.29 0.25 0.10 0.00 0.00 0.00 0.00 0.00 0.00 0.00 0.00 0.00 0.00 0.00 0.01 0.01 0.02 0.04 0.04 0.02 0.02 0.03 0.04